Latest Coastal Weather Observations for Lombadina

IDW60701

Issued at 5:42 pm WST Friday 1 July 2016 (issued every 10 minutes, with the page automatically refreshed every 10 minutes)

About coastal observations | Map of coastal stations | Coastal observations for WA | Marine services | Other Formats
Station Details ID: 503016 Name: LOMBADINA AIRSTRIP Lat: -16.52 Lon: 122.92 Height: 42.0 m
Data from the previous 72 hours. | See also: Recent months for locations in Western Australia
Date/Time
WST
Temp
°C
Wind Pressure Rain since
9am
mm
Weather Cloud Vis
km
Sea
Height
m
Swell
Dir  Spd
kts
Gust
kts
hPa Trend Height
m
Period
s
Dir
01/05:30pm 27.1 ESE 2 4 1014.3 - 0.0 - - 10 - - - -
01/05:00pm 28.6 ESE 3 5 1013.8 - 0.0 - - 10 - - - -
01/04:30pm 30.0 E 4 9 1013.5 - 0.0 - - 10 - - - -
01/04:00pm 30.5 ENE 6 10 1013.3 - 0.0 - - 10 - - - -
01/03:30pm 30.7 ENE 6 10 1013.2 - 0.0 - - 10 - - - -
01/03:00pm 31.0 NE 5 10 1013.2 - 0.0 - - 10 - - - -
01/02:30pm 28.9 NW 6 9 1013.4 - 0.0 - - 10 - - - -
01/02:00pm 29.1 WNW 5 9 1013.5 - 0.0 - - 10 - - - -
01/01:30pm 29.0 NW 6 9 1013.8 - 0.0 - - 10 - - - -
01/01:00pm 28.9 NW 7 10 1014.0 - 0.0 - - 10 - - - -
01/12:30pm 29.0 NW 5 9 1014.2 - 0.0 - - 10 - - - -
01/12:00pm 30.3 NE 5 8 1014.4 - 0.0 - - 10 - - - -
01/11:30am 29.4 NNE 4 10 1015.0 - 0.0 - - 10 - - - -
01/11:00am 28.7 NNE 4 7 1015.5 - 0.0 - Partly cloudy 10 - - - -
01/10:30am 28.6 E 4 8 1015.6 - 0.0 - - 10 - - - -
01/10:00am 28.4 E 4 9 1016.0 - 0.0 - - 10 - - - -
01/09:30am 28.4 NE 3 7 1016.2 - 0.0 - - 10 - - - -
01/09:00am 27.7 E 3 5 1016.4 - 0.0 - - 10 - - - -
01/08:30am 26.7 ESE 2 4 1016.3 - 0.0 - - 10 - - - -
01/08:00am 25.1 ESE 3 5 1016.2 - 0.0 - - 10 - - - -
01/07:30am 23.4 E 2 3 1015.9 - 0.0 - - 10 - - - -
01/07:00am 21.8 E 2 3 1015.4 - 0.0 - - 10 - - - -
01/06:49am 21.6 E 2 3 1015.4 - 0.0 - - 10 - - - -
01/06:30am 20.8 ESE 1 2 1015.3 - 0.0 - - 2 - - - -
01/06:23am 20.9 ESE 1 2 1015.2 - 0.0 - - 3 - - - -
01/06:00am 21.7 SE 1 2 1015.1 - 0.0 - - 10 - - - -
01/05:59am 21.6 SE 1 2 1015.1 - 0.0 - - 10 - - - -
01/05:40am 21.7 SSE 2 4 1015.1 - 0.0 - - 4 - - - -
01/05:34am 21.6 SSE 1 3 1015.1 - 0.0 - - 10 - - - -
01/05:30am 21.8 SSE 1 3 1015.1 - 0.0 - - 10 - - - -
01/05:00am 21.8 S 1 3 1015.0 - 0.0 - - 1 - - - -
01/04:30am 21.8 SSW 2 4 1014.9 - 0.0 - - 0.6 - - - -
01/04:00am 21.7 SSW 1 3 1014.9 - 0.0 - - 0.5 - - - -
01/03:30am 21.8 SSW 2 3 1014.7 - 0.0 - - 0.5 - - - -
01/03:00am 21.8 SSW 2 3 1014.7 - 0.0 - - 0.4 - - - -
01/02:49am 22.1 SSW 2 3 1014.8 - 0.0 - - 3 - - - -
01/02:30am 22.3 SW 3 5 1015.0 - 0.0 - - 10 - - - -
01/02:00am 22.4 SW 2 4 1015.1 - 0.0 - - 10 - - - -
01/01:30am 22.8 SW 2 3 1015.2 - 0.0 - - 10 - - - -
01/01:00am 22.6 SW 2 4 1015.5 - 0.0 - - 10 - - - -
01/12:30am 22.5 WSW 2 3 1015.6 - 0.0 - - 10 - - - -
01/12:00am 22.8 SW 2 4 1015.7 - 0.0 - - 10 - - - -
 
Date/Time
WST
Temp
°C
Wind Pressure Rain since
9am
mm
Weather Cloud Vis
km
Sea
Height
m
Swell
Dir  Spd
kts
Gust
kts
hPa Trend Height
m
Period
s
Dir
30/11:30pm 23.0 SW 3 4 1015.9 - 0.0 - - 10 - - - -
30/11:00pm 22.7 SSW 2 4 1016.1 - 0.0 - - 10 - - - -
30/10:30pm 22.4 SSW 3 5 1016.2 - 0.0 - - 10 - - - -
30/10:00pm 22.6 SW 3 5 1016.0 - 0.0 - - 10 - - - -
30/09:30pm 22.5 SW 3 4 1015.8 - 0.0 - - 10 - - - -
30/09:00pm 21.5 SW 3 4 1015.5 - 0.0 - - 10 - - - -
30/08:30pm 21.9 WNW 1 3 1015.2 - 0.0 - - 10 - - - -
30/08:00pm 24.0 NNW 3 4 1015.0 - 0.0 - - 10 - - - -
30/07:30pm 24.4 NNW 3 4 1014.7 - 0.0 - - 10 - - - -
30/07:00pm 23.2 NNW 2 3 1014.4 - 0.0 - - 10 - - - -
30/06:30pm 24.9 NNW 2 3 1013.9 - 0.0 - - 10 - - - -
30/06:00pm 26.1 N 2 4 1013.5 - 0.0 - - 10 - - - -
30/05:30pm 27.4 N 3 5 1013.3 - 0.0 - - 10 - - - -
30/05:00pm 28.5 NE 5 7 1012.9 - 0.0 - - 10 - - - -
30/04:30pm 29.2 NE 6 8 1012.7 - 0.0 - - 10 - - - -
30/04:00pm 29.6 E 5 7 1012.4 - 0.0 - - 10 - - - -
30/03:30pm 30.0 ENE 5 8 1012.3 - 0.0 - - 10 - - - -
30/03:00pm 30.9 ENE 5 9 1012.4 - 0.0 - - 10 - - - -
30/02:30pm 30.2 E 5 8 1012.6 - 0.0 - - 10 - - - -
30/02:00pm 30.2 E 5 10 1012.9 - 0.0 - - 10 - - - -
30/01:30pm 30.5 E 7 12 1013.2 - 0.0 - - 10 - - - -
30/01:00pm 30.0 ESE 7 11 1013.5 - 0.0 - - 10 - - - -
30/12:30pm 30.3 ESE 6 11 1014.0 - 0.0 - - 10 - - - -
30/12:00pm 29.2 ESE 5 9 1014.5 - 0.0 - - 10 - - - -
30/11:30am 28.7 E 7 11 1015.0 - 0.0 - - 10 - - - -
30/11:00am 27.7 ESE 6 12 1015.3 - 0.0 - - 10 - - - -
30/10:30am 27.0 ESE 7 12 1016.0 - 0.0 - - 10 - - - -
30/10:00am 27.0 ESE 7 11 1016.2 - 0.0 - - 10 - - - -
30/09:30am 27.0 SE 7 12 1016.4 - 0.0 - Partly cloudy 10 - - - -
30/09:00am 26.5 SE 6 12 1016.6 - 0.0 - Mostly clear 10 - - - -
30/08:30am 25.7 SE 6 9 1016.4 - 0.0 - - 10 - - - -
30/08:00am 24.9 SE 5 9 1016.3 - 0.0 - - 10 - - - -
30/07:30am 24.0 SE 4 6 1016.2 - 0.0 - - 10 - - - -
30/07:00am 22.9 ESE 3 5 1015.9 - 0.0 - Partly cloudy 10 - - - -
30/06:30am 21.6 ESE 3 4 1015.7 - 0.0 - - 10 - - - -
30/06:00am 21.0 ESE 2 3 1015.4 - 0.0 - - 10 - - - -
30/05:30am 21.1 SE 3 4 1015.2 - 0.0 - - 10 - - - -
30/05:00am 20.8 SE 2 3 1015.2 - 0.0 - - 10 - - - -
30/04:30am 21.0 SSE 3 4 1014.9 - 0.0 - - 10 - - - -
30/04:00am 21.0 SE 2 4 1015.0 - 0.0 - - 10 - - - -
30/03:30am 21.4 SE 2 4 1015.1 - 0.0 - - 10 - - - -
30/03:00am 21.6 SE 3 4 1015.2 - 0.0 - - 10 - - - -
30/02:30am 22.1 SE 4 6 1015.2 - 0.0 - - 10 - - - -
30/02:00am 20.9 SSE 1 2 1015.3 - 0.0 - - 10 - - - -
30/01:30am 21.1 S 2 4 1015.6 - 0.0 - - 10 - - - -
30/01:00am 20.7 S 2 4 1016.0 - 0.0 - - 10 - - - -
30/12:30am 21.3 CALM 0 2 1016.3 - 0.0 - - 10 - - - -
30/12:00am 21.2 SW 1 3 1016.5 - 0.0 - - 10 - - - -
 
Date/Time
WST
Temp
°C
Wind Pressure Rain since
9am
mm
Weather Cloud Vis
km
Sea
Height
m
Swell
Dir  Spd
kts
Gust
kts
hPa Trend Height
m
Period
s
Dir
29/11:30pm 21.7 CALM 0 2 1016.6 - 0.0 - - 10 - - - -
29/11:00pm 21.8 W 1 2 1016.7 - 0.0 - - 10 - - - -
29/10:30pm 21.9 SW 1 2 1016.8 - 0.0 - - 10 - - - -
29/10:00pm 21.6 WNW 1 2 1016.7 - 0.0 - - 10 - - - -
29/09:30pm 21.9 WNW 1 2 1016.7 - 0.0 - - 10 - - - -
29/09:00pm 22.7 NW 1 3 1016.6 - 0.0 - - 10 - - - -
29/08:30pm 25.2 N 2 4 1016.5 - 0.0 - - 10 - - - -
29/08:00pm 25.5 N 4 6 1016.5 - 0.0 - - 10 - - - -
29/07:30pm 25.3 NNE 5 6 1016.4 - 0.0 - - 10 - - - -
29/07:00pm 25.0 NE 1 2 1016.0 - 0.0 - - 10 - - - -
29/06:30pm 26.3 NE 2 5 1015.8 - 0.0 - - 10 - - - -
29/06:00pm 26.3 NE 3 5 1015.5 - 0.0 - - 10 - - - -
29/05:30pm 27.6 NE 3 5 1015.4 - 0.0 - - 10 - - - -
29/05:00pm 28.6 ENE 4 6 1015.0 - 0.0 - - 10 - - - -
29/04:30pm 29.3 ENE 5 8 1014.7 - 0.0 - - 10 - - - -
29/04:00pm 29.6 NE 6 10 1014.3 - 0.0 - - 10 - - - -
29/03:30pm 30.0 ENE 7 12 1014.1 - 0.0 - - 10 - - - -
29/03:00pm 30.0 ENE 6 11 1013.8 - 0.0 - - 10 - - - -
29/02:30pm 30.4 ENE 6 12 1013.6 - 0.0 - - 10 - - - -
29/02:00pm 30.5 E 7 11 1013.8 - 0.0 - - 10 - - - -
29/01:30pm 30.6 E 7 11 1013.9 - 0.0 - - 10 - - - -
29/01:00pm 30.1 E 6 11 1014.2 - 0.0 - - 10 - - - -
29/12:30pm 29.8 E 7 11 1014.4 - 0.0 - - 10 - - - -
29/12:00pm 29.7 ENE 8 11 1014.8 - 0.0 - - 10 - - - -
29/11:30am 29.5 E 7 11 1015.1 - 0.0 - - 10 - - - -
29/11:00am 29.2 E 8 13 1015.6 - 0.0 - - 10 - - - -
29/10:30am 29.3 ESE 6 11 1015.6 - 0.0 - - 10 - - - -
29/10:00am 29.0 E 6 11 1016.0 - 0.0 - - 10 - - - -
29/09:30am 28.9 ESE 6 9 1015.9 - 0.0 - - 10 - - - -
29/09:00am 28.3 ESE 5 9 1015.9 - 0.0 - - 10 - - - -
29/08:30am 27.8 ESE 3 6 1015.9 - 0.0 - - 10 - - - -
29/08:00am 26.1 ESE 3 4 1015.9 - 0.0 - - 10 - - - -
29/07:30am 24.6 SE 3 4 1015.7 - 0.0 - - 10 - - - -
29/07:00am 23.2 SE 3 5 1015.4 - 0.0 - - 10 - - - -
29/06:30am 22.0 SE 3 4 1015.2 - 0.0 - - 10 - - - -
29/06:00am 21.7 SE 3 5 1015.1 - 0.0 - - 10 - - - -
29/05:30am 21.9 SE 2 4 1014.9 - 0.0 - Partly cloudy 10 - - - -
29/05:00am 22.4 SE 3 5 1014.7 - 0.0 - Partly cloudy 10 - - - -
29/04:30am 22.6 SE 3 6 1014.7 - 0.0 - Partly cloudy 10 - - - -
29/04:00am 22.8 SE 3 7 1014.6 - 0.0 - - 10 - - - -
29/03:30am 23.1 SE 3 6 1014.5 - 0.0 - - 10 - - - -
29/03:00am 22.1 ESE 3 5 1014.7 - 0.0 - - 10 - - - -
29/02:30am 21.5 CALM 0 1 1014.6 - 0.0 - - 10 - - - -
29/02:00am 21.5 CALM 0 0 1014.8 - 0.0 - - 10 - - - -
29/01:30am 21.3 S 1 2 1015.0 - 0.0 - - 10 - - - -
29/01:00am 21.5 S 1 2 1015.3 - 0.0 - - 10 - - - -
29/12:30am 21.0 CALM 0 1 1015.4 - 0.0 - - 10 - - - -
29/12:00am 22.2 NNE 1 2 1015.3 - 0.0 - - 10 - - - -
 
Date/Time
WST
Temp
°C
Wind Pressure Rain since
9am
mm
Weather Cloud Vis
km
Sea
Height
m
Swell
Dir  Spd
kts
Gust
kts
hPa Trend Height
m
Period
s
Dir
28/11:30pm 22.4 CALM 0 0 1015.3 - 0.0 - - 10 - - - -
28/11:00pm 22.6 N 1 2 1015.3 - 0.0 - - 10 - - - -
28/10:30pm 22.7 N 2 3 1015.5 - 0.0 - - 10 - - - -
28/10:00pm 22.7 N 1 3 1015.7 - 0.0 - - 10 - - - -
28/09:30pm 22.8 NNE 1 2 1015.8 - 0.0 - - 10 - - - -
28/09:00pm 22.7 NNE 1 2 1015.8 - 0.0 - - 10 - - - -
28/08:30pm 22.9 CALM 0 0 1015.9 - 0.0 - - 10 - - - -
28/08:00pm 23.0 CALM 0 0 1015.6 - 0.0 - - 10 - - - -
28/07:30pm 23.7 CALM 0 0 1015.5 - 0.0 - - 10 - - - -
28/07:00pm 23.6 CALM 0 0 1015.0 - 0.0 - - 10 - - - -
28/06:30pm 24.5 CALM 0 1 1014.7 - 0.0 - - 10 - - - -
28/06:00pm 25.7 ESE 1 2 1014.4 - 0.0 - - 10 - - - -

Other Formats:

Comma delimited format used in spreadsheet applications
http://www.bom.gov.au/fwo/IDW60701/IDW60701.99206.axf

JavaScript Object Notation format (JSON) in row-major order
http://www.bom.gov.au/fwo/IDW60701/IDW60701.99206.json